Location: Berg
(48.4333°N, 13.9167°E)
Time: 05:25:22
(UTC+00:00)

SJ 16-02 - Pass Details

Date: 18 September 2020
Orbit: 606 x 616 km, 75.0° (Epoch: 29 October)

Event Time Altitude Azimuth Distance (km) Brightness Sun altitude
Rises 17:58:16 0° 215° (SW) 2,854 5.1 -8.8°
Reaches altitude 10° 18:00:34 10° 222° (SW) 1,954 4.3 -9.1°
Maximum altitude 18:04:47 47° 296° (WNW) 808 2.5 -9.8°
Drops below altitude 10° 18:09:01 10° 11° (NNE) 1,967 4.0 -10.5°
Sets 18:11:21 0° 18° (NNE) 2,876 4.8 -10.9°
